contact:dominique.lefevre@mio.osupytheas.fr, maurice.libes@osupytheas.fr, didier.mallarino@osupytheas.fr
Project:EMSO http://www.emso-fr.org/EMSO-France
Depth: 2436.0 m
Title:EMSO Ligure Ouest : Data MII capteur MICROCAT
DateTime_Computer,Latitude,Longitude,Temperature,Conductivity,Pressure,DateTime_Instrument
DateTime_Computer,Latitude,Longitude,degC,S m-1,dbar,DateTime_Instrument
2023-11-28T00:01:32Z,42.805,6.029,13.3036,4.60104,2470.67,2023-11-28T02:04:00Z
2023-11-28T00:04:35Z,42.805,6.029,13.3029,4.60114,2470.717,2023-11-28T02:07:03Z
2023-11-28T00:07:38Z,42.805,6.029,13.3030,4.60109,2470.693,2023-11-28T02:10:06Z
2023-11-28T00:10:41Z,42.805,6.029,13.3031,4.60109,2470.693,2023-11-28T02:13:09Z
2023-11-28T00:13:44Z,42.805,6.029,13.3028,4.60104,2470.73,2023-11-28T02:16:12Z
2023-11-28T00:16:47Z,42.805,6.029,13.3026,4.60109,2470.717,2023-11-28T02:19:15Z
2023-11-28T00:19:50Z,42.805,6.029,13.3031,4.60112,2470.73,2023-11-28T02:22:19Z
2023-11-28T00:22:53Z,42.805,6.029,13.3031,4.60110,2470.693,2023-11-28T02:25:22Z
2023-11-28T00:25:56Z,42.805,6.029,13.3030,4.60110,2470.707,2023-11-28T02:28:25Z
2023-11-28T00:29:00Z,42.805,6.029,13.3029,4.60110,2470.693,2023-11-28T02:31:28Z
2023-11-28T00:32:03Z,42.805,6.029,13.3029,4.60109,2470.67,2023-11-28T02:34:31Z
2023-11-28T00:35:06Z,42.805,6.029,13.3029,4.60105,2470.693,2023-11-28T02:37:34Z
2023-11-28T00:38:09Z,42.805,6.029,13.3029,4.60105,2470.646,2023-11-28T02:40:37Z
2023-11-28T00:41:12Z,42.805,6.029,13.3028,4.60111,2470.684,2023-11-28T02:43:40Z
2023-11-28T00:44:15Z,42.805,6.029,13.3028,4.60108,2470.707,2023-11-28T02:46:43Z
2023-11-28T00:47:18Z,42.805,6.029,13.3027,4.60111,2470.693,2023-11-28T02:49:46Z
2023-11-28T00:50:21Z,42.805,6.029,13.3032,4.60109,2470.67,2023-11-28T02:52:49Z
2023-11-28T00:53:24Z,42.805,6.029,13.3029,4.60110,2470.693,2023-11-28T02:55:52Z
2023-11-28T00:56:27Z,42.805,6.029,13.3031,4.60104,2470.717,2023-11-28T02:58:56Z
2023-11-28T00:59:30Z,42.805,6.029,13.3029,4.60104,2470.693,2023-11-28T03:01:59Z
2023-11-28T01:02:33Z,42.805,6.029,13.3029,4.60114,2470.67,2023-11-28T03:05:02Z
2023-11-28T01:05:36Z,42.805,6.029,13.3029,4.60110,2470.707,2023-11-28T03:08:05Z
2023-11-28T01:08:40Z,42.805,6.029,13.3029,4.60110,2470.707,2023-11-28T03:11:08Z
2023-11-28T01:11:43Z,42.805,6.029,13.3028,4.60105,2470.646,2023-11-28T03:14:11Z
2023-11-28T01:14:46Z,42.805,6.029,13.3029,4.60106,2470.624,2023-11-28T03:17:14Z
2023-11-28T01:17:49Z,42.805,6.029,13.3029,4.60106,2470.661,2023-11-28T03:20:17Z
2023-11-28T01:20:52Z,42.805,6.029,13.3031,4.60109,2470.67,2023-11-28T03:23:20Z
2023-11-28T01:23:55Z,42.805,6.029,13.3031,4.60107,2470.707,2023-11-28T03:26:23Z
2023-11-28T01:26:58Z,42.805,6.029,13.3030,4.60106,2470.684,2023-11-28T03:29:26Z
2023-11-28T01:30:01Z,42.805,6.029,13.3029,4.60106,2470.693,2023-11-28T03:32:29Z
2023-11-28T01:33:04Z,42.805,6.029,13.3026,4.60107,2470.67,2023-11-28T03:35:33Z
2023-11-28T01:36:07Z,42.805,6.029,13.3029,4.60105,2470.646,2023-11-28T03:38:36Z
2023-11-28T01:39:10Z,42.805,6.029,13.3027,4.60102,2470.693,2023-11-28T03:41:39Z
2023-11-28T01:42:13Z,42.805,6.029,13.3030,4.60102,2470.661,2023-11-28T03:44:42Z
2023-11-28T01:45:17Z,42.805,6.029,13.3031,4.60105,2470.646,2023-11-28T03:47:45Z
2023-11-28T01:48:20Z,42.805,6.029,13.3025,4.60106,2470.67,2023-11-28T03:50:48Z
2023-11-28T01:51:23Z,42.805,6.029,13.3028,4.60107,2470.67,2023-11-28T03:53:51Z
2023-11-28T01:54:26Z,42.805,6.029,13.3033,4.60105,2470.646,2023-11-28T03:56:54Z
2023-11-28T01:57:29Z,42.805,6.029,13.3029,4.60108,2470.661,2023-11-28T03:59:57Z
2023-11-28T02:00:32Z,42.805,6.029,13.3028,4.60103,2470.707,2023-11-28T04:03:00Z
2023-11-28T02:03:35Z,42.805,6.029,13.3030,4.60105,2470.661,2023-11-28T04:06:03Z
2023-11-28T02:06:38Z,42.805,6.029,13.3025,4.60110,2470.646,2023-11-28T04:09:06Z
2023-11-28T02:09:41Z,42.805,6.029,13.3031,4.60104,2470.67,2023-11-28T04:12:09Z
2023-11-28T02:12:44Z,42.805,6.029,13.3029,4.60107,2470.693,2023-11-28T04:15:13Z
2023-11-28T02:15:47Z,42.805,6.029,13.3034,4.60102,2470.684,2023-11-28T04:18:16Z
2023-11-28T02:18:50Z,42.805,6.029,13.3030,4.60104,2470.67,2023-11-28T04:21:19Z
2023-11-28T02:21:54Z,42.805,6.029,13.3030,4.60104,2470.67,2023-11-28T04:24:22Z
2023-11-28T02:24:57Z,42.805,6.029,13.3027,4.60102,2470.684,2023-11-28T04:27:25Z
2023-11-28T02:28:00Z,42.805,6.029,13.3028,4.60104,2470.693,2023-11-28T04:30:28Z
2023-11-28T02:31:03Z,42.805,6.029,13.3028,4.60102,2470.693,2023-11-28T04:33:31Z
2023-11-28T02:34:06Z,42.805,6.029,13.3028,4.60102,2470.693,2023-11-28T04:36:34Z
2023-11-28T02:37:09Z,42.805,6.029,13.3029,4.60104,2470.684,2023-11-28T04:39:37Z
2023-11-28T02:40:12Z,42.805,6.029,13.3029,4.60104,2470.693,2023-11-28T04:42:40Z
2023-11-28T02:43:15Z,42.805,6.029,13.3031,4.60104,2470.67,2023-11-28T04:45:43Z
2023-11-28T02:46:18Z,42.805,6.029,13.3031,4.60104,2470.661,2023-11-28T04:48:46Z
2023-11-28T02:49:21Z,42.805,6.029,13.3033,4.60105,2470.67,2023-11-28T04:51:50Z
2023-11-28T02:52:24Z,42.805,6.029,13.3027,4.60103,2470.73,2023-11-28T04:54:53Z
2023-11-28T02:55:27Z,42.805,6.029,13.3029,4.60105,2470.693,2023-11-28T04:57:56Z
2023-11-28T02:58:30Z,42.805,6.029,13.3029,4.60102,2470.717,2023-11-28T05:00:59Z
2023-11-28T03:01:34Z,42.805,6.029,13.3030,4.60102,2470.67,2023-11-28T05:04:02Z
2023-11-28T03:04:37Z,42.805,6.029,13.3027,4.60102,2470.717,2023-11-28T05:07:05Z
2023-11-28T03:07:40Z,42.805,6.029,13.3032,4.60104,2470.684,2023-11-28T05:10:08Z
2023-11-28T03:10:43Z,42.805,6.029,13.3031,4.60107,2470.717,2023-11-28T05:13:11Z
2023-11-28T03:13:46Z,42.805,6.029,13.3037,4.60102,2470.67,2023-11-28T05:16:14Z
2023-11-28T03:16:49Z,42.805,6.029,13.3028,4.60103,2470.717,2023-11-28T05:19:17Z
2023-11-28T03:19:52Z,42.805,6.029,13.3029,4.60101,2470.717,2023-11-28T05:22:20Z
2023-11-28T03:22:55Z,42.805,6.029,13.3030,4.60102,2470.74,2023-11-28T05:25:23Z
2023-11-28T03:25:58Z,42.805,6.029,13.3030,4.60104,2470.693,2023-11-28T05:28:26Z
2023-11-28T03:29:01Z,42.805,6.029,13.3029,4.60104,2470.693,2023-11-28T05:31:30Z
2023-11-28T03:32:04Z,42.805,6.029,13.3029,4.60101,2470.717,2023-11-28T05:34:33Z
2023-11-28T03:35:07Z,42.805,6.029,13.3031,4.60102,2470.703,2023-11-28T05:37:36Z
2023-11-28T03:38:11Z,42.805,6.029,13.3035,4.60103,2470.763,2023-11-28T05:40:39Z
2023-11-28T03:41:14Z,42.805,6.029,13.3028,4.60102,2470.717,2023-11-28T05:43:42Z
2023-11-28T03:44:17Z,42.805,6.029,13.3028,4.60102,2470.74,2023-11-28T05:46:45Z
2023-11-28T03:47:20Z,42.805,6.029,13.3030,4.60101,2470.73,2023-11-28T05:49:48Z
2023-11-28T03:50:23Z,42.805,6.029,13.3030,4.60101,2470.763,2023-11-28T05:52:51Z
2023-11-28T03:53:26Z,42.805,6.029,13.3031,4.60102,2470.754,2023-11-28T05:55:54Z
2023-11-28T03:56:29Z,42.805,6.029,13.3029,4.60102,2470.73,2023-11-28T05:58:57Z
2023-11-28T03:59:32Z,42.805,6.029,13.3029,4.60102,2470.74,2023-11-28T06:02:00Z
2023-11-28T04:02:35Z,42.805,6.029,13.3029,4.60101,2470.754,2023-11-28T06:05:03Z
2023-11-28T04:05:38Z,42.805,6.029,13.3032,4.60101,2470.74,2023-11-28T06:08:07Z
2023-11-28T04:08:41Z,42.805,6.029,13.3029,4.60102,2470.717,2023-11-28T06:11:10Z
2023-11-28T04:11:44Z,42.805,6.029,13.3029,4.60102,2470.726,2023-11-28T06:14:13Z
2023-11-28T04:14:47Z,42.805,6.029,13.3035,4.60101,2470.74,2023-11-28T06:17:16Z
2023-11-28T04:17:51Z,42.805,6.029,13.3036,4.60102,2470.74,2023-11-28T06:20:19Z
2023-11-28T04:20:54Z,42.805,6.029,13.3029,4.60102,2470.777,2023-11-28T06:23:22Z
2023-11-28T04:23:57Z,42.805,6.029,13.3027,4.60101,2470.726,2023-11-28T06:26:25Z
2023-11-28T04:27:00Z,42.805,6.029,13.3029,4.60102,2470.763,2023-11-28T06:29:28Z
2023-11-28T04:30:03Z,42.805,6.029,13.3029,4.60101,2470.777,2023-11-28T06:32:31Z
2023-11-28T04:33:06Z,42.805,6.029,13.3033,4.60102,2470.8,2023-11-28T06:35:34Z
2023-11-28T04:36:09Z,42.805,6.029,13.3034,4.60105,2470.787,2023-11-28T06:38:37Z
2023-11-28T04:39:12Z,42.805,6.029,13.3027,4.60104,2470.773,2023-11-28T06:41:40Z
2023-11-28T04:42:15Z,42.805,6.029,13.3030,4.60103,2470.824,2023-11-28T06:44:44Z
2023-11-28T04:45:18Z,42.805,6.029,13.3028,4.60103,2470.763,2023-11-28T06:47:47Z
2023-11-28T04:48:21Z,42.805,6.029,13.3034,4.60101,2470.81,2023-11-28T06:50:50Z
2023-11-28T04:51:24Z,42.805,6.029,13.3031,4.60102,2470.8,2023-11-28T06:53:53Z
2023-11-28T04:54:28Z,42.805,6.029,13.3026,4.60100,2470.787,2023-11-28T06:56:56Z
2023-11-28T04:57:31Z,42.805,6.029,13.3027,4.60102,2470.833,2023-11-28T06:59:59Z
2023-11-28T05:00:34Z,42.805,6.029,13.3032,4.60101,2470.81,2023-11-28T07:03:02Z
2023-11-28T05:03:37Z,42.805,6.029,13.3027,4.60101,2470.857,2023-11-28T07:06:05Z
2023-11-28T05:06:40Z,42.805,6.029,13.3030,4.60102,2470.833,2023-11-28T07:09:08Z
2023-11-28T05:09:43Z,42.805,6.029,13.3027,4.60103,2470.847,2023-11-28T07:12:11Z
2023-11-28T05:12:46Z,42.805,6.029,13.3034,4.60102,2470.833,2023-11-28T07:15:14Z
2023-11-28T05:15:49Z,42.805,6.029,13.3029,4.60103,2470.833,2023-11-28T07:18:17Z
2023-11-28T05:18:52Z,42.805,6.029,13.3029,4.60103,2470.824,2023-11-28T07:21:20Z
2023-11-28T05:21:55Z,42.805,6.029,13.3027,4.60101,2470.833,2023-11-28T07:24:24Z
2023-11-28T05:24:58Z,42.805,6.029,13.3026,4.60102,2470.824,2023-11-28T07:27:27Z
2023-11-28T05:28:01Z,42.805,6.029,13.3029,4.60101,2470.871,2023-11-28T07:30:30Z
2023-11-28T05:31:04Z,42.805,6.029,13.3030,4.60101,2470.847,2023-11-28T07:33:32Z
2023-11-28T05:34:07Z,42.805,6.029,13.3028,4.60103,2470.847,2023-11-28T07:36:35Z
2023-11-28T05:37:10Z,42.805,6.029,13.3031,4.60102,2470.871,2023-11-28T07:39:38Z
2023-11-28T05:40:13Z,42.805,6.029,13.3032,4.60103,2470.847,2023-11-28T07:42:41Z
2023-11-28T05:43:16Z,42.805,6.029,13.3026,4.60102,2470.857,2023-11-28T07:45:44Z
2023-11-28T05:46:19Z,42.805,6.029,13.3032,4.60103,2470.847,2023-11-28T07:48:47Z
2023-11-28T05:49:22Z,42.805,6.029,13.3029,4.60104,2470.857,2023-11-28T07:51:50Z
2023-11-28T05:52:25Z,42.805,6.029,13.3035,4.60102,2470.857,2023-11-28T07:54:54Z
2023-11-28T05:55:28Z,42.805,6.029,13.3037,4.60102,2470.857,2023-11-28T07:57:57Z
2023-11-28T05:58:31Z,42.805,6.029,13.3029,4.60102,2470.857,2023-11-28T08:01:00Z
2023-11-28T06:01:34Z,42.805,6.029,13.3034,4.60103,2470.871,2023-11-28T08:04:03Z
2023-11-28T06:04:38Z,42.805,6.029,13.3029,4.60102,2470.871,2023-11-28T08:07:06Z
2023-11-28T06:07:41Z,42.805,6.029,13.3030,4.60104,2470.88,2023-11-28T08:10:09Z
2023-11-28T06:10:44Z,42.805,6.029,13.3029,4.60113,2470.88,2023-11-28T08:13:12Z
2023-11-28T06:13:47Z,42.805,6.029,13.3031,4.60102,2470.871,2023-11-28T08:16:15Z
2023-11-28T06:16:50Z,42.805,6.029,13.3031,4.60102,2470.857,2023-11-28T08:19:18Z
2023-11-28T06:19:53Z,42.805,6.029,13.3029,4.60102,2470.88,2023-11-28T08:22:21Z
2023-11-28T06:22:56Z,42.805,6.029,13.3029,4.60103,2470.894,2023-11-28T08:25:24Z
2023-11-28T06:25:59Z,42.805,6.029,13.3030,4.60110,2470.88,2023-11-28T08:28:27Z
2023-11-28T06:29:02Z,42.805,6.029,13.3031,4.60109,2470.88,2023-11-28T08:31:31Z
2023-11-28T06:32:05Z,42.805,6.029,13.3029,4.60102,2470.927,2023-11-28T08:34:34Z
2023-11-28T06:35:08Z,42.805,6.029,13.3033,4.60102,2470.904,2023-11-28T08:37:37Z
2023-11-28T06:38:11Z,42.805,6.029,13.3031,4.60105,2470.904,2023-11-28T08:40:40Z
2023-11-28T06:41:15Z,42.805,6.029,13.3030,4.60105,2470.871,2023-11-28T08:43:43Z
2023-11-28T06:44:18Z,42.805,6.029,13.3029,4.60102,2470.894,2023-11-28T08:46:46Z
2023-11-28T06:47:21Z,42.805,6.029,13.3033,4.60104,2470.904,2023-11-28T08:49:49Z
2023-11-28T06:50:24Z,42.805,6.029,13.3033,4.60103,2470.904,2023-11-28T08:52:52Z
2023-11-28T06:53:27Z,42.805,6.029,13.3031,4.60104,2470.88,2023-11-28T08:55:55Z
2023-11-28T06:56:30Z,42.805,6.029,13.3029,4.60102,2470.904,2023-11-28T08:58:58Z
2023-11-28T06:59:33Z,42.805,6.029,13.3032,4.60103,2470.88,2023-11-28T09:02:01Z
2023-11-28T07:02:36Z,42.805,6.029,13.3033,4.60104,2470.904,2023-11-28T09:05:04Z
2023-11-28T07:05:39Z,42.805,6.029,13.3029,4.60109,2470.904,2023-11-28T09:08:07Z
2023-11-28T07:08:42Z,42.805,6.029,13.3032,4.60102,2470.904,2023-11-28T09:11:11Z
2023-11-28T07:11:45Z,42.805,6.029,13.3034,4.60112,2470.88,2023-11-28T09:14:14Z
2023-11-28T07:14:48Z,42.805,6.029,13.3029,4.60102,2470.94,2023-11-28T09:17:17Z
2023-11-28T07:17:52Z,42.805,6.029,13.3028,4.60102,2470.927,2023-11-28T09:20:20Z
2023-11-28T07:20:55Z,42.805,6.029,13.3030,4.60103,2470.904,2023-11-28T09:23:23Z
2023-11-28T07:23:58Z,42.805,6.029,13.3029,4.60102,2470.904,2023-11-28T09:26:26Z
2023-11-28T07:27:01Z,42.805,6.029,13.3033,4.60103,2470.95,2023-11-28T09:29:29Z
2023-11-28T07:30:08Z,42.805,6.029,13.3031,4.60112,2470.904,2023-11-28T09:32:32Z
2023-11-28T07:33:07Z,42.805,6.029,13.3031,4.60104,2470.927,2023-11-28T09:35:35Z
2023-11-28T07:36:10Z,42.805,6.029,13.3032,4.60107,2470.904,2023-11-28T09:38:38Z
2023-11-28T07:39:13Z,42.805,6.029,13.3031,4.60103,2470.904,2023-11-28T09:41:42Z
2023-11-28T07:42:16Z,42.805,6.029,13.3032,4.60104,2470.95,2023-11-28T09:44:45Z
2023-11-28T07:45:19Z,42.805,6.029,13.3039,4.60110,2470.904,2023-11-28T09:47:48Z
2023-11-28T07:48:23Z,42.805,6.029,13.3032,4.60104,2470.927,2023-11-28T09:50:51Z
2023-11-28T07:51:26Z,42.805,6.029,13.3029,4.60104,2470.917,2023-11-28T09:53:54Z
2023-11-28T07:54:29Z,42.805,6.029,13.3029,4.60104,2470.917,2023-11-28T09:56:57Z
2023-11-28T07:57:32Z,42.805,6.029,13.3027,4.60103,2470.94,2023-11-28T10:00:00Z
2023-11-28T08:00:35Z,42.805,6.029,13.3031,4.60106,2470.917,2023-11-28T10:03:03Z
2023-11-28T08:03:38Z,42.805,6.029,13.3032,4.60104,2470.917,2023-11-28T10:06:06Z
2023-11-28T08:06:41Z,42.805,6.029,13.3027,4.60107,2470.904,2023-11-28T10:09:09Z
2023-11-28T08:09:44Z,42.805,6.029,13.3030,4.60111,2470.904,2023-11-28T10:12:12Z
2023-11-28T08:12:47Z,42.805,6.029,13.3032,4.60106,2470.894,2023-11-28T10:15:16Z
2023-11-28T08:15:50Z,42.805,6.029,13.3031,4.60107,2470.917,2023-11-28T10:18:19Z
2023-11-28T08:18:53Z,42.805,6.029,13.3031,4.60105,2470.917,2023-11-28T10:21:22Z
2023-11-28T08:21:56Z,42.805,6.029,13.3030,4.60106,2470.904,2023-11-28T10:24:25Z
2023-11-28T08:25:00Z,42.805,6.029,13.3029,4.60104,2470.894,2023-11-28T10:27:28Z
2023-11-28T08:28:03Z,42.805,6.029,13.3031,4.60102,2470.917,2023-11-28T10:30:31Z
2023-11-28T08:31:06Z,42.805,6.029,13.3034,4.60104,2470.904,2023-11-28T10:33:34Z
2023-11-28T08:34:09Z,42.805,6.029,13.3030,4.60103,2470.904,2023-11-28T10:36:37Z
2023-11-28T08:37:12Z,42.805,6.029,13.3029,4.60104,2470.917,2023-11-28T10:39:40Z
2023-11-28T08:40:15Z,42.805,6.029,13.3031,4.60105,2470.927,2023-11-28T10:42:43Z
2023-11-28T08:43:18Z,42.805,6.029,13.3031,4.60106,2470.88,2023-11-28T10:45:46Z
2023-11-28T08:46:21Z,42.805,6.029,13.3029,4.60105,2470.88,2023-11-28T10:48:49Z
2023-11-28T08:49:24Z,42.805,6.029,13.3032,4.60107,2470.904,2023-11-28T10:51:53Z
2023-11-28T08:52:27Z,42.805,6.029,13.3031,4.60107,2470.894,2023-11-28T10:54:56Z
2023-11-28T08:55:30Z,42.805,6.029,13.3030,4.60104,2470.88,2023-11-28T10:57:59Z
2023-11-28T08:58:33Z,42.805,6.029,13.3031,4.60105,2470.88,2023-11-28T11:01:02Z
2023-11-28T09:01:37Z,42.805,6.029,13.3032,4.60104,2470.917,2023-11-28T11:04:05Z
2023-11-28T09:04:40Z,42.805,6.029,13.3031,4.60103,2470.904,2023-11-28T11:07:08Z
2023-11-28T09:07:43Z,42.805,6.029,13.3031,4.60104,2470.871,2023-11-28T11:10:11Z
2023-11-28T09:10:46Z,42.805,6.029,13.3031,4.60110,2470.904,2023-11-28T11:13:14Z
2023-11-28T09:13:49Z,42.805,6.029,13.3026,4.60104,2470.904,2023-11-28T11:16:17Z
2023-11-28T09:16:52Z,42.805,6.029,13.3035,4.60109,2470.88,2023-11-28T11:19:20Z
2023-11-28T09:19:55Z,42.805,6.029,13.3031,4.60109,2470.88,2023-11-28T11:22:23Z
2023-11-28T09:22:58Z,42.805,6.029,13.3031,4.60104,2470.894,2023-11-28T11:25:26Z
2023-11-28T09:26:01Z,42.805,6.029,13.3034,4.60104,2470.88,2023-11-28T11:28:30Z
2023-11-28T09:29:04Z,42.805,6.029,13.3032,4.60104,2470.88,2023-11-28T11:31:33Z
2023-11-28T09:32:06Z,42.805,6.029,13.3033,4.60110,2470.894,2023-11-28T11:34:35Z
2023-11-28T09:35:09Z,42.805,6.029,13.3030,4.60104,2470.88,2023-11-28T11:37:38Z
2023-11-28T09:38:12Z,42.805,6.029,13.3031,4.60104,2470.833,2023-11-28T11:40:41Z
2023-11-28T09:41:15Z,42.805,6.029,13.3031,4.60104,2470.857,2023-11-28T11:43:44Z
2023-11-28T09:44:19Z,42.805,6.029,13.3033,4.60110,2470.843,2023-11-28T11:46:47Z
2023-11-28T09:47:22Z,42.805,6.029,13.3029,4.60104,2470.871,2023-11-28T11:49:50Z
2023-11-28T09:50:25Z,42.805,6.029,13.3035,4.60105,2470.833,2023-11-28T11:52:53Z
2023-11-28T09:53:28Z,42.805,6.029,13.3032,4.60104,2470.857,2023-11-28T11:55:56Z
2023-11-28T09:56:31Z,42.805,6.029,13.3034,4.60107,2470.833,2023-11-28T11:58:59Z
2023-11-28T09:59:34Z,42.805,6.029,13.3034,4.60109,2470.857,2023-11-28T12:02:02Z
2023-11-28T10:02:37Z,42.805,6.029,13.3031,4.60106,2470.88,2023-11-28T12:05:05Z
2023-11-28T10:05:40Z,42.805,6.029,13.3035,4.60105,2470.857,2023-11-28T12:08:08Z
2023-11-28T10:08:43Z,42.805,6.029,13.3029,4.60106,2470.833,2023-11-28T12:11:12Z
2023-11-28T10:11:46Z,42.805,6.029,13.3034,4.60104,2470.833,2023-11-28T12:14:15Z
2023-11-28T10:14:49Z,42.805,6.029,13.3033,4.60104,2470.847,2023-11-28T12:17:18Z
2023-11-28T10:17:52Z,42.805,6.029,13.3034,4.60106,2470.81,2023-11-28T12:20:21Z
2023-11-28T10:20:56Z,42.805,6.029,13.3034,4.60105,2470.847,2023-11-28T12:23:24Z
2023-11-28T10:23:59Z,42.805,6.029,13.3029,4.60105,2470.82,2023-11-28T12:26:27Z
2023-11-28T10:27:02Z,42.805,6.029,13.3031,4.60104,2470.857,2023-11-28T12:29:30Z
2023-11-28T10:30:05Z,42.805,6.029,13.3032,4.60104,2470.857,2023-11-28T12:32:33Z
2023-11-28T10:33:08Z,42.805,6.029,13.3034,4.60104,2470.857,2023-11-28T12:35:36Z
2023-11-28T10:36:11Z,42.805,6.029,13.3031,4.60105,2470.81,2023-11-28T12:38:39Z
2023-11-28T10:39:14Z,42.805,6.029,13.3031,4.60105,2470.833,2023-11-28T12:41:42Z
2023-11-28T10:42:17Z,42.805,6.029,13.3032,4.60105,2470.81,2023-11-28T12:44:46Z
2023-11-28T10:45:20Z,42.805,6.029,13.3034,4.60105,2470.81,2023-11-28T12:47:49Z
2023-11-28T10:48:23Z,42.805,6.029,13.3031,4.60109,2470.833,2023-11-28T12:50:52Z
2023-11-28T10:51:26Z,42.805,6.029,13.3030,4.60104,2470.833,2023-11-28T12:53:55Z
2023-11-28T10:54:30Z,42.805,6.029,13.3031,4.60102,2470.847,2023-11-28T12:56:58Z
2023-11-28T10:57:33Z,42.805,6.029,13.3033,4.60103,2470.824,2023-11-28T13:00:01Z
2023-11-28T11:00:36Z,42.805,6.029,13.3031,4.60104,2470.81,2023-11-28T13:03:04Z
2023-11-28T11:03:39Z,42.805,6.029,13.3032,4.60102,2470.796,2023-11-28T13:06:07Z
2023-11-28T11:06:42Z,42.805,6.029,13.3030,4.60102,2470.787,2023-11-28T13:09:10Z
2023-11-28T11:09:45Z,42.805,6.029,13.3031,4.60104,2470.824,2023-11-28T13:12:13Z
2023-11-28T11:12:48Z,42.805,6.029,13.3031,4.60103,2470.81,2023-11-28T13:15:16Z
2023-11-28T11:15:51Z,42.805,6.029,13.3034,4.60103,2470.833,2023-11-28T13:18:19Z
2023-11-28T11:18:54Z,42.805,6.029,13.3033,4.60106,2470.787,2023-11-28T13:21:23Z
2023-11-28T11:21:57Z,42.805,6.029,13.3036,4.60103,2470.81,2023-11-28T13:24:26Z
2023-11-28T11:25:00Z,42.805,6.029,13.3029,4.60103,2470.824,2023-11-28T13:27:29Z
2023-11-28T11:28:04Z,42.805,6.029,13.3030,4.60104,2470.81,2023-11-28T13:30:32Z
2023-11-28T11:31:05Z,42.805,6.029,13.3030,4.60104,2470.81,2023-11-28T13:33:34Z
2023-11-28T11:34:08Z,42.805,6.029,13.3031,4.60104,2470.81,2023-11-28T13:36:37Z
2023-11-28T11:37:12Z,42.805,6.029,13.3034,4.60104,2470.787,2023-11-28T13:39:40Z
2023-11-28T11:40:15Z,42.805,6.029,13.3028,4.60104,2470.777,2023-11-28T13:42:43Z
2023-11-28T11:43:18Z,42.805,6.029,13.3032,4.60102,2470.833,2023-11-28T13:45:46Z
2023-11-28T11:46:21Z,42.805,6.029,13.3032,4.60104,2470.787,2023-11-28T13:48:49Z
2023-11-28T11:49:24Z,42.805,6.029,13.3033,4.60102,2470.81,2023-11-28T13:51:52Z
2023-11-28T11:52:27Z,42.805,6.029,13.3034,4.60103,2470.754,2023-11-28T13:54:55Z
2023-11-28T11:55:30Z,42.805,6.029,13.3031,4.60104,2470.763,2023-11-28T13:57:58Z
2023-11-28T11:58:33Z,42.805,6.029,13.3033,4.60104,2470.8,2023-11-28T14:01:02Z
2023-11-28T12:01:36Z,42.805,6.029,13.3030,4.60103,2470.763,2023-11-28T14:04:05Z
2023-11-28T12:04:39Z,42.805,6.029,13.3032,4.60104,2470.763,2023-11-28T14:07:08Z
2023-11-28T12:07:42Z,42.805,6.029,13.3033,4.60103,2470.763,2023-11-28T14:10:11Z
2023-11-28T12:10:46Z,42.805,6.029,13.3035,4.60106,2470.74,2023-11-28T14:13:14Z
2023-11-28T12:13:49Z,42.805,6.029,13.3031,4.60104,2470.74,2023-11-28T14:16:17Z
2023-11-28T12:16:52Z,42.805,6.029,13.3030,4.60104,2470.74,2023-11-28T14:19:20Z
2023-11-28T12:19:55Z,42.805,6.029,13.3031,4.60104,2470.787,2023-11-28T14:22:23Z
2023-11-28T12:22:58Z,42.805,6.029,13.3029,4.60103,2470.763,2023-11-28T14:25:26Z
2023-11-28T12:26:01Z,42.805,6.029,13.3031,4.60104,2470.777,2023-11-28T14:28:29Z
2023-11-28T12:29:04Z,42.805,6.029,13.3032,4.60107,2470.777,2023-11-28T14:31:32Z
2023-11-28T12:32:07Z,42.805,6.029,13.3031,4.60104,2470.754,2023-11-28T14:34:35Z
2023-11-28T12:35:10Z,42.805,6.029,13.3032,4.60104,2470.763,2023-11-28T14:37:39Z
2023-11-28T12:38:13Z,42.805,6.029,13.3033,4.60104,2470.74,2023-11-28T14:40:42Z
2023-11-28T12:41:16Z,42.805,6.029,13.3033,4.60104,2470.777,2023-11-28T14:43:45Z
2023-11-28T12:44:19Z,42.805,6.029,13.3032,4.60104,2470.73,2023-11-28T14:46:48Z
2023-11-28T12:47:23Z,42.805,6.029,13.3039,4.60104,2470.74,2023-11-28T14:49:51Z
2023-11-28T12:50:26Z,42.805,6.029,13.3031,4.60104,2470.754,2023-11-28T14:52:54Z
2023-11-28T12:53:29Z,42.805,6.029,13.3031,4.60104,2470.717,2023-11-28T14:55:57Z
2023-11-28T12:56:32Z,42.805,6.029,13.3031,4.60105,2470.754,2023-11-28T14:59:00Z
2023-11-28T12:59:35Z,42.805,6.029,13.3033,4.60104,2470.74,2023-11-28T15:02:03Z
2023-11-28T13:02:38Z,42.805,6.029,13.3033,4.60104,2470.74,2023-11-28T15:05:06Z
2023-11-28T13:05:41Z,42.805,6.029,13.3032,4.60104,2470.74,2023-11-28T15:08:09Z
2023-11-28T13:08:44Z,42.805,6.029,13.3036,4.60105,2470.754,2023-11-28T15:11:12Z
2023-11-28T13:11:47Z,42.805,6.029,13.3033,4.60104,2470.707,2023-11-28T15:14:16Z
2023-11-28T13:14:50Z,42.805,6.029,13.3035,4.60105,2470.703,2023-11-28T15:17:19Z
2023-11-28T13:17:53Z,42.805,6.029,13.3037,4.60105,2470.73,2023-11-28T15:20:22Z
2023-11-28T13:20:57Z,42.805,6.029,13.3034,4.60107,2470.74,2023-11-28T15:23:25Z
2023-11-28T13:24:00Z,42.805,6.029,13.3032,4.60106,2470.717,2023-11-28T15:26:28Z
2023-11-28T13:27:03Z,42.805,6.029,13.3037,4.60109,2470.717,2023-11-28T15:29:31Z
2023-11-28T13:30:06Z,42.805,6.029,13.3035,4.60107,2470.74,2023-11-28T15:32:34Z
2023-11-28T13:33:09Z,42.805,6.029,13.3034,4.60108,2470.73,2023-11-28T15:35:37Z
2023-11-28T13:36:12Z,42.805,6.029,13.3037,4.60108,2470.707,2023-11-28T15:38:40Z
2023-11-28T13:39:15Z,42.805,6.029,13.3039,4.60110,2470.717,2023-11-28T15:41:43Z
2023-11-28T13:42:18Z,42.805,6.029,13.3041,4.60112,2470.693,2023-11-28T15:44:46Z
2023-11-28T13:45:21Z,42.805,6.029,13.3043,4.60112,2470.693,2023-11-28T15:47:50Z
2023-11-28T13:48:24Z,42.805,6.029,13.3039,4.60111,2470.693,2023-11-28T15:50:53Z
2023-11-28T13:51:27Z,42.805,6.029,13.3037,4.60112,2470.717,2023-11-28T15:53:56Z
2023-11-28T13:54:31Z,42.805,6.029,13.3043,4.60112,2470.693,2023-11-28T15:56:59Z
2023-11-28T13:57:34Z,42.805,6.029,13.3041,4.60114,2470.693,2023-11-28T16:00:02Z
2023-11-28T14:00:37Z,42.805,6.029,13.3039,4.60115,2470.717,2023-11-28T16:03:05Z
2023-11-28T14:03:40Z,42.805,6.029,13.3040,4.60115,2470.67,2023-11-28T16:06:08Z
2023-11-28T14:06:43Z,42.805,6.029,13.3040,4.60114,2470.693,2023-11-28T16:09:11Z
2023-11-28T14:09:46Z,42.805,6.029,13.3045,4.60115,2470.684,2023-11-28T16:12:14Z
2023-11-28T14:12:49Z,42.805,6.029,13.3041,4.60116,2470.693,2023-11-28T16:15:17Z
2023-11-28T14:15:52Z,42.805,6.029,13.3043,4.60115,2470.707,2023-11-28T16:18:20Z
2023-11-28T14:18:55Z,42.805,6.029,13.3040,4.60114,2470.693,2023-11-28T16:21:23Z
2023-11-28T14:21:58Z,42.805,6.029,13.3042,4.60116,2470.693,2023-11-28T16:24:27Z
2023-11-28T14:25:01Z,42.805,6.029,13.3039,4.60116,2470.693,2023-11-28T16:27:30Z
2023-11-28T14:28:04Z,42.805,6.029,13.3043,4.60116,2470.707,2023-11-28T16:30:33Z
2023-11-28T14:31:07Z,42.805,6.029,13.3044,4.60116,2470.67,2023-11-28T16:33:36Z
2023-11-28T14:34:11Z,42.805,6.029,13.3041,4.60115,2470.707,2023-11-28T16:36:39Z
2023-11-28T14:37:14Z,42.805,6.029,13.3041,4.60115,2470.693,2023-11-28T16:39:42Z
2023-11-28T14:40:17Z,42.805,6.029,13.3047,4.60122,2470.693,2023-11-28T16:42:45Z
2023-11-28T14:43:20Z,42.805,6.029,13.3041,4.60117,2470.693,2023-11-28T16:45:48Z
2023-11-28T14:46:23Z,42.805,6.029,13.3043,4.60118,2470.707,2023-11-28T16:48:51Z
2023-11-28T14:49:26Z,42.805,6.029,13.3041,4.60116,2470.693,2023-11-28T16:51:54Z
2023-11-28T14:52:29Z,42.805,6.029,13.3046,4.60114,2470.67,2023-11-28T16:54:57Z
2023-11-28T14:55:32Z,42.805,6.029,13.3046,4.60118,2470.693,2023-11-28T16:58:01Z
2023-11-28T14:58:35Z,42.805,6.029,13.3041,4.60117,2470.693,2023-11-28T17:01:04Z
2023-11-28T15:01:38Z,42.805,6.029,13.3043,4.60116,2470.684,2023-11-28T17:04:07Z